This demonstration page uses our WeatherBlox Daily Observations layout. Learn more.

Left ArrowRight Arrow

39.12711, -84.51439

Hourly Observations for June 2, 2019

Temp ( °F °C ) Dew Point ( °F °C ) Humidity (%) Winds ( mph kmh ) Pressure ( in mb ) Visibility ( mi km ) Precip ( " mm )
12:53 am 00:53 Clear 66 18.9 61 16.1 84 84 VRB 5 7 29.79 1009 10 16 0.00 0.00
1:53 am 01:53 Clear 64 17.8 62 16.7 93 93 Calm 29.79 1009 10 16 0.00 0.00
2:53 am 02:53 Clear 64 17.8 61 16.1 90 90 VRB 3 6 29.77 1008 10 16 0.00 0.00
3:53 am 03:53 Clear 63 17.2 61 16.1 93 93 undefined N/A 29.77 1008 9 14 0.00 0.00
4:53 am 04:53 Clear 62 16.7 60 15.6 93 93 ESE 7 11 29.78 1008 8 13 0.00 0.00
5:53 am 05:53 Mostly Clear 61 16.1 60 15.6 97 97 Calm 29.78 1009 7 11 0.00 0.00
6:53 am 06:53 Sunny with Mist and Fog 61 16.1 60 15.6 97 97 WSW 6 9 29.78 1008 4 6 0.00 0.00
7:53 am 07:53 Sunny 66 18.9 64 17.8 93 93 Calm 29.79 1009 7 11 0.00 0.00
8:53 am 08:53 Sunny 70 21.1 64 17.8 82 82 S 5 7 29.79 1009 10 16 0.00 0.00
9:53 am 09:53 Sunny 74 23.3 64 17.8 71 71 W 5 7 29.80 1009 10 16 0.00 0.00
10:53 am 10:53 Mostly Sunny 77 25 64 17.8 64 64 W 7 11 29.81 1009 10 16 0.00 0.00
11:53 am 11:53 Partly Cloudy 78 25.6 64 17.8 62 62 W 10 17 29.83 1010 10 16 0.00 0.00
12:53 pm 12:53 Mostly Sunny 81 27.2 65 18.3 58 58 W 6 9 29.82 1010 10 16 0.00 0.00
1:53 pm 13:53 Partly Cloudy 81 27.2 60 15.6 49 49 WNW 9 15 29.82 1010 10 16 0.00 0.00
2:53 pm 14:53 Partly Cloudy 80 26.7 58 14.4 47 47 NNW 14 22 29.83 1010 10 16 0.00 0.00
3:53 pm 15:53 Partly Cloudy 80 26.7 56 13.3 44 44 NNW 14 22 29.83 1010 10 16 0.00 0.00
4:53 pm 16:53 Mostly Sunny 79 26.1 55 12.8 44 44 NW 14 22 29.84 1011 10 16 0.00 0.00
5:53 pm 17:53 Mostly Sunny 78 25.6 52 11.1 40 40 NNW 12 19 29.85 1011 10 16 0.00 0.00
6:53 pm 18:53 Mostly Sunny 76 24.4 49 9.4 39 39 NNW 12 19 29.87 1012 10 16 0.00 0.00
7:53 pm 19:53 Sunny 74 23.3 49 9.4 41 41 NNW 8 13 29.88 1012 10 16 0.00 0.00
8:53 pm 20:53 Sunny 72 22.2 49 9.4 44 44 NNW 10 17 29.90 1012 10 16 0.00 0.00
9:53 pm 21:53 Clear 70 21.1 50 10 49 49 N 12 19 29.93 1014 10 16 0.00 0.00
10:53 pm 22:53 Clear 67 19.4 47 8.3 49 49 N 15 24 29.97 1015 10 16 0.00 0.00
11:53 pm 23:53 Clear 64 17.8 39 3.9 40 40 N 10 17 29.99 1016 10 16 0.00 0.00

Powered by AerisWeather